X  Close Clear throughout the day.
Conditions Temperature Feels Precipitation Wind Wind Direction UV index Pressure
03:00 partly-cloudy-night Partly Cloudy 17° - 23-45 km/h ESE ESE - 1025,5
04:00 partly-cloudy-night Partly Cloudy 16° - 21-42 km/h ESE ESE - 1025,5
05:00 partly-cloudy-night Partly Cloudy 16° - 20-38 km/h ESE ESE - 1025,8
06:00 partly-cloudy-night Partly Cloudy 16° - 20-37 km/h ESE ESE - 1026,3
07:00 partly-cloudy-day Partly Cloudy 16° - 19-34 km/h ESE ESE - 1027,0
08:00 partly-cloudy-day Partly Cloudy 17° - 20-32 km/h ESE ESE uv-1 1027,4
09:00 partly-cloudy-day Partly Cloudy 18° - 20-29 km/h ESE ESE uv-2 1027,6
10:00 partly-cloudy-day Partly Cloudy 20° - 19-25 km/h ESE ESE uv-5 1027,5
11:00 partly-cloudy-day Partly Cloudy 22° - 19-23 km/h ESE ESE uv-7 1027,3
12:00 clear-day Clear 23° - 19-23 km/h ESE ESE uv-9 1027,2
13:00 clear-day Clear 24° - 20-24 km/h ESE ESE uv-11 1026,8
14:00 clear-day Clear 26° - 21-25 km/h SE SE uv-12 1026,2
15:00 clear-day Clear 26° - 21-24 km/h SE SE uv-11 1025,6
16:00 clear-day Clear 27° - 21-24 km/h SE SE uv-9 1024,8
17:00 clear-day Clear 27° - 21-25 km/h SE SE uv-6 1024,2
18:00 clear-day Clear 26° - 21-28 km/h SE SE uv-3 1023,8
19:00 clear-day Clear 25° - 20-32 km/h SE SE uv-1 1023,8
20:00 clear-day Clear 24° - 18-36 km/h SE SE - 1024,1
21:00 clear-night Clear 22° - 16-35 km/h SE SE - 1024,7
22:00 clear-night Clear 21° - 15-31 km/h ESE ESE - 1025,6
23:00 clear-night Clear 19° - 17-34 km/h ESE ESE - 1026,4
00:00 clear-night Clear 18° - 15-30 km/h ESE ESE - 1026,4
01:00 clear-night Clear 17° - 13-26 km/h ESE ESE - 1026,4
02:00 clear-night Clear 17° - 10-21 km/h ESE ESE - 1026,2
03:00 clear-night Clear 16° - 8-15 km/h ESE ESE - 1025,9
04:00 clear-night Clear 15° - 7-12 km/h ESE ESE - 1025,6
05:00 clear-night Clear 15° - 6-10 km/h East Easterly - 1025,7
06:00 clear-night Clear 14° - 6-9 km/h East Easterly - 1026,2
07:00 clear-day Clear 15° - 5-8 km/h ENE ENE - 1026,8
08:00 clear-day Clear 17° - 6-10 km/h NE NE uv-1 1027,4
09:00 clear-day Clear 20° - 7-11 km/h NE NE uv-3 1027,7
10:00 clear-day Clear 23° - 8-11 km/h NE NE uv-5 1027,4
11:00 clear-day Clear 25° - 8-9 km/h ENE ENE uv-8 1027,1
12:00 clear-day Clear 27° - 10-10 km/h East Easterly uv-11 1026,6
13:00 clear-day Clear 28° - 12-12 km/h ESE ESE uv-12 1026,0
14:00 clear-day Clear 29° - 15-15 km/h ESE ESE uv-12 1025,2
15:00 clear-day Clear 29° - 18-18 km/h ESE ESE uv-11 1024,5
16:00 clear-day Clear 29° - 19-20 km/h SE SE uv-8 1023,8
17:00 clear-day Clear 28° - 20-21 km/h SE SE uv-6 1023,6
18:00 clear-day Clear 27° - 19-22 km/h SE SE uv-3 1023,4
19:00 clear-day Clear 26° - 18-25 km/h SE SE uv-1 1023,3
20:00 clear-day Clear 24° - 15-27 km/h SSE SSE - 1023,4
21:00 clear-night Clear 22° - 12-24 km/h SSE SSE - 1023,6
22:00 clear-night Clear 21° - 10-19 km/h SE SE - 1023,9
23:00 clear-night Clear 20° - 9-18 km/h SE SE - 1024,0
00:00 clear-night Clear 19° - 8-15 km/h SE SE - 1023,9
01:00 clear-night Clear 18° - 7-11 km/h SE SE - 1023,6
02:00 clear-night Clear 18° - 6-8 km/h SE SE - 1023,1
03:00 clear-night Clear 17° - 5-7 km/h SE SE - 1022,8